Welcome to Northern Hawkes Bay. New Zealand.
PWS Header
      nz Flag



Hit Counter


W3C Valid W3C Valid logo


    Wairoa

Select any of the Stations below to visit their websites.










Historic Data from Weather Underground
Select the location of interest below. Wairoa is the default. Please have patience, this Data is slow to load in.
Northern Hawkes Bay Historical Data
Daily Summary for June 2, 2017 Units:  Metric    English   Both
« Previous Day
Next Day »
Daily Weekly Monthly Yearly Custom
  High: Low: Average:
Temperature: 15.1 °C 9.7 °C 11.3 °C
Dew Point: 10.8 °C 9.1 °C 10.1 °C
Humidity: 99% 71% 93%
Wind Speed: 12.2km/h 0.0km/h 2.7km/h
Wind Gust: 14.8km/h - -
Wind- - WSW
Pressure: 1018.2 hPa 1013.4 hPa -
Precipitation: 2.3 mm    
Historical Graphs
 
 
Tabular Data for June 2, 2017
Time Temperature Dew Point Pressure Wind Wind Speed Wind Gust Humidity Rainfall Rate (Hourly) solar
00:01 9.7 °C 9.6 °C 1018.2 hPa NW 2.6 km/h 3.5 km/h 99% 0.0 mm 0 W/m2
00:06 9.8 °C 9.7 °C 1018.2 hPa NNW 2.6 km/h 5.0 km/h 99% 0.0 mm 0 W/m2
00:11 9.8 °C 9.7 °C 1018.2 hPa NNW 1.1 km/h 5.0 km/h 99% 0.0 mm 0 W/m2
00:16 9.8 °C 9.7 °C 1018.2 hPa North 1.1 km/h 3.5 km/h 99% 0.0 mm 0 W/m2
00:21 9.8 °C 9.7 °C 1018.2 hPa NNW 2.6 km/h 5.0 km/h 99% 0.0 mm 0 W/m2
00:26 9.9 °C 9.8 °C 1018.2 hPa NW 2.6 km/h 5.0 km/h 99% 0.0 mm 0 W/m2
00:31 9.9 °C 9.8 °C 1018.2 hPa NW 3.5 km/h 5.0 km/h 99% 0.0 mm 0 W/m2
00:36 10.0 °C 9.8 °C 1018.2 hPa NNW 2.6 km/h 5.0 km/h 99% 0.0 mm 0 W/m2
00:41 10.0 °C 9.8 °C 1018.2 hPa NNW 2.6 km/h 5.0 km/h 99% 0.0 mm 0 W/m2
00:46 10.0 °C 9.8 °C 1018.2 hPa NNW 2.6 km/h 5.0 km/h 99% 0.0 mm 0 W/m2
00:51 10.1 °C 9.9 °C 1018.2 hPa NW 2.6 km/h 5.0 km/h 99% 0.0 mm 0 W/m2
00:56 10.1 °C 9.9 °C 1018.2 hPa NNW 1.1 km/h 5.0 km/h 99% 0.0 mm 0 W/m2
01:01 10.1 °C 9.9 °C 1018.2 hPa North 1.1 km/h 3.5 km/h 99% 0.0 mm 0 W/m2
01:06 10.1 °C 9.9 °C 1018.2 hPa North 2.6 km/h 5.0 km/h 99% 0.0 mm 0 W/m2
01:11 10.2 °C 10.1 °C 1018.2 hPa Calm   5.0 km/h 99% 0.0 mm 0 W/m2
01:16 10.2 °C 10.1 °C 1018.2 hPa North 1.1 km/h 5.0 km/h 99% 0.0 mm 0 W/m2
01:21 10.2 °C 10.1 °C 1018.2 hPa North 2.6 km/h 3.5 km/h 99% 0.0 mm 0 W/m2
01:26 10.2 °C 10.1 °C 1018.2 hPa North 3.5 km/h 6.1 km/h 99% 0.0 mm 0 W/m2
01:31 10.2 °C 10.1 °C 1018.2 hPa North 1.1 km/h 6.1 km/h 99% 0.0 mm 0 W/m2
01:36 10.2 °C 10.1 °C 1018.2 hPa North 2.6 km/h 6.1 km/h 99% 0.0 mm 0 W/m2
01:41 10.2 °C 10.1 °C 1018.2 hPa North 2.6 km/h 5.0 km/h 99% 0.0 mm 0 W/m2
01:46 10.2 °C 10.1 °C 1018.2 hPa NNW 3.5 km/h 6.1 km/h 99% 0.0 mm 0 W/m2
01:51 10.2 °C 10.1 °C 1018.2 hPa NNW 3.5 km/h 6.1 km/h 99% 0.0 mm 0 W/m2
01:56 10.2 °C 10.1 °C 1018.2 hPa NNW 2.6 km/h 6.1 km/h 99% 0.0 mm 0 W/m2
02:01 10.2 °C 10.1 °C 1018.2 hPa NNW 1.1 km/h 5.0 km/h 99% 0.0 mm 0 W/m2
02:06 10.2 °C 10.1 °C 1017.8 hPa North 2.6 km/h 5.0 km/h 99% 0.0 mm 0 W/m2
02:11 10.2 °C 10.1 °C 1017.8 hPa North 1.1 km/h 3.5 km/h 99% 0.0 mm 0 W/m2
02:16 10.2 °C 10.1 °C 1017.8 hPa Calm   3.5 km/h 99% 0.0 mm 0 W/m2
02:21 10.2 °C 10.1 °C 1017.5 hPa Calm   3.5 km/h 99% 0.0 mm 0 W/m2
02:26 10.2 °C 10.1 °C 1017.8 hPa NE 2.6 km/h 3.5 km/h 99% 0.0 mm 0 W/m2
02:31 10.2 °C 10.1 °C 1017.8 hPa NE 1.1 km/h 3.5 km/h 99% 0.0 mm 0 W/m2
02:36 10.2 °C 10.1 °C 1017.8 hPa NE 1.1 km/h 3.5 km/h 99% 0.0 mm 0 W/m2
02:41 10.2 °C 10.1 °C 1017.8 hPa NE 1.1 km/h 3.5 km/h 99% 0.0 mm 0 W/m2
02:46 10.2 °C 10.1 °C 1017.8 hPa Calm   3.5 km/h 99% 0.0 mm 0 W/m2
02:51 10.2 °C 10.1 °C 1017.8 hPa Calm   3.5 km/h 99% 0.0 mm 0 W/m2
02:56 10.2 °C 10.1 °C 1017.8 hPa Calm   2.6 km/h 99% 0.0 mm 0 W/m2
03:01 10.2 °C 10.1 °C 1017.8 hPa North 1.1 km/h 2.6 km/h 99% 0.0 mm 0 W/m2
03:06 10.2 °C 10.1 °C 1017.8 hPa NNW 2.6 km/h 3.5 km/h 99% 0.0 mm 0 W/m2
03:11 10.2 °C 10.1 °C 1017.5 hPa NW 1.1 km/h 3.5 km/h 99% 0.0 mm 0 W/m2
03:16 10.2 °C 10.1 °C 1017.8 hPa NW 2.6 km/h 5.0 km/h 99% 0.0 mm 0 W/m2
03:21 10.2 °C 10.1 °C 1017.8 hPa NW 3.5 km/h 6.1 km/h 99% 0.0 mm 0 W/m2
03:26 10.2 °C 10.1 °C 1017.8 hPa NW 3.5 km/h 6.1 km/h 99% 0.0 mm 0 W/m2
03:31 10.1 °C 9.9 °C 1017.5 hPa WNW 3.5 km/h 6.1 km/h 99% 0.0 mm 0 W/m2
03:36 10.1 °C 9.9 °C 1017.5 hPa NW 5.0 km/h 6.1 km/h 99% 0.0 mm 0 W/m2
03:41 10.1 °C 9.9 °C 1017.5 hPa NW 1.1 km/h 6.1 km/h 99% 0.0 mm 0 W/m2
03:46 10.1 °C 9.9 °C 1017.5 hPa NW 2.6 km/h 6.1 km/h 99% 0.0 mm 0 W/m2
03:51 10.1 °C 9.9 °C 1017.5 hPa North 2.6 km/h 5.0 km/h 99% 0.0 mm 0 W/m2
03:56 10.1 °C 9.9 °C 1017.5 hPa NNW 2.6 km/h 3.5 km/h 99% 0.0 mm 0 W/m2
04:01 10.1 °C 9.9 °C 1017.5 hPa NNW 1.1 km/h 3.5 km/h 99% 0.0 mm 0 W/m2
04:06 10.0 °C 9.8 °C 1017.5 hPa Calm   3.5 km/h 99% 0.0 mm 0 W/m2
04:11 10.0 °C 9.8 °C 1017.5 hPa NNW 1.1 km/h 3.5 km/h 99% 0.0 mm 0 W/m2
04:16 10.0 °C 9.8 °C 1017.5 hPa NNW 1.1 km/h 3.5 km/h 99% 0.0 mm 0 W/m2
04:21 10.0 °C 9.8 °C 1017.2 hPa NNW 2.6 km/h 3.5 km/h 99% 0.0 mm 0 W/m2
04:26 10.0 °C 9.8 °C 1017.2 hPa NNW 2.6 km/h 3.5 km/h 99% 0.0 mm 0 W/m2
04:31 10.0 °C 9.8 °C 1017.2 hPa NW 1.1 km/h 5.0 km/h 99% 0.0 mm 0 W/m2
04:36 10.0 °C 9.8 °C 1017.2 hPa NW 2.6 km/h 5.0 km/h 99% 0.0 mm 0 W/m2
04:41 10.0 °C 9.8 °C 1017.5 hPa NNW 2.6 km/h 5.0 km/h 99% 0.0 mm 0 W/m2
04:46 10.0 °C 9.8 °C 1017.5 hPa NNW 2.6 km/h 5.0 km/h 99% 0.0 mm 0 W/m2
04:51 10.0 °C 9.8 °C 1017.2 hPa NNW 2.6 km/h 5.0 km/h 99% 0.0 mm 0 W/m2
04:56 10.0 °C 9.8 °C 1017.2 hPa NW 2.6 km/h 5.0 km/h 99% 0.0 mm 0 W/m2
05:13 10.0 °C 9.8 °C 1017.2 hPa WNW 2.6 km/h 5.0 km/h 99% 0.0 mm 0 W/m2
05:18 10.0 °C 9.8 °C 1017.2 hPa NW 2.6 km/h 5.0 km/h 99% 0.0 mm 0 W/m2
05:23 10.0 °C 9.8 °C 1017.2 hPa NW 1.1 km/h 5.0 km/h 99% 0.0 mm 0 W/m2
05:28 10.0 °C 9.8 °C 1017.5 hPa NNW 2.6 km/h 5.0 km/h 99% 0.0 mm 0 W/m2
05:33 10.0 °C 9.8 °C 1017.2 hPa NNW 1.1 km/h 3.5 km/h 99% 0.0 mm 0 W/m2
05:38 10.0 °C 9.8 °C 1017.2 hPa NNW 1.1 km/h 3.5 km/h 99% 0.0 mm 0 W/m2
05:43 10.0 °C 9.8 °C 1017.5 hPa NNW 2.6 km/h 6.1 km/h 99% 0.0 mm 0 W/m2
05:48 10.0 °C 9.8 °C 1017.5 hPa NNW 3.5 km/h 6.1 km/h 99% 0.0 mm 0 W/m2
05:53 10.0 °C 9.8 °C 1017.2 hPa NNW 1.1 km/h 7.2 km/h 99% 0.0 mm 0 W/m2
05:58 10.0 °C 9.8 °C 1017.5 hPa NW 1.1 km/h 7.2 km/h 99% 0.0 mm 0 W/m2
06:03 10.0 °C 9.8 °C 1017.2 hPa NW 1.1 km/h 3.5 km/h 99% 0.0 mm 0 W/m2
06:08 10.0 °C 9.8 °C 1017.5 hPa NNW 1.1 km/h 3.5 km/h 99% 0.0 mm 0 W/m2
06:13 10.0 °C 9.8 °C 1017.5 hPa North 1.1 km/h 3.5 km/h 99% 0.0 mm 0 W/m2
06:18 10.0 °C 9.8 °C 1017.5 hPa North 1.1 km/h 3.5 km/h 99% 0.0 mm 0 W/m2
06:23 10.0 °C 9.8 °C 1017.5 hPa NNE 2.6 km/h 3.5 km/h 99% 0.0 mm 0 W/m2
06:28 10.0 °C 9.8 °C 1017.5 hPa Calm   3.5 km/h 99% 0.0 mm 0 W/m2
06:33 10.0 °C 9.8 °C 1017.5 hPa North 1.1 km/h 2.6 km/h 99% 0.0 mm 0 W/m2
06:38 10.0 °C 9.8 °C 1017.5 hPa NNW 2.6 km/h 3.5 km/h 99% 0.0 mm 0 W/m2
06:43 10.0 °C 9.8 °C 1017.5 hPa NNW 2.6 km/h 5.0 km/h 99% 0.0 mm 0 W/m2
06:48 10.0 °C 9.8 °C 1017.5 hPa NNW 2.6 km/h 5.0 km/h 99% 0.0 mm 0 W/m2
06:53 10.0 °C 9.8 °C 1017.5 hPa NNW 1.1 km/h 5.0 km/h 99% 0.0 mm 0 W/m2
06:58 10.0 °C 9.8 °C 1017.8 hPa NNW 3.5 km/h 5.0 km/h 99% 0.0 mm 0 W/m2
07:03 9.9 °C 9.8 °C 1017.8 hPa NNW 2.6 km/h 6.1 km/h 99% 0.0 mm 0 W/m2
07:08 9.9 °C 9.8 °C 1017.8 hPa Calm   6.1 km/h 99% 0.0 mm 0 W/m2
07:13 9.9 °C 9.8 °C 1017.5 hPa Calm   3.5 km/h 99% 0.0 mm 0 W/m2
07:18 9.9 °C 9.8 °C 1017.8 hPa Calm   1.1 km/h 99% 0.0 mm 0 W/m2
07:23 9.9 °C 9.8 °C 1017.5 hPa North 1.1 km/h 2.6 km/h 99% 0.0 mm 1 W/m2
07:28 9.9 °C 9.8 °C 1017.5 hPa North 2.6 km/h 3.5 km/h 99% 0.0 mm 3 W/m2
07:33 10.0 °C 9.8 °C 1017.8 hPa NNW 2.6 km/h 3.5 km/h 99% 0.0 mm 5 W/m2
07:38 10.0 °C 9.8 °C 1017.8 hPa NW 2.6 km/h 3.5 km/h 99% 0.0 mm 8 W/m2
07:43 10.0 °C 9.8 °C 1017.5 hPa NW 1.1 km/h 5.0 km/h 99% 0.0 mm 8 W/m2
07:48 10.0 °C 9.8 °C 1017.5 hPa NNW 2.6 km/h 5.0 km/h 99% 0.0 mm 8 W/m2
07:53 10.0 °C 9.8 °C 1017.8 hPa NNW 2.6 km/h 5.0 km/h 99% 0.0 mm 8 W/m2
07:58 10.0 °C 9.8 °C 1017.5 hPa NNW 1.1 km/h 5.0 km/h 99% 0.0 mm 9 W/m2
08:03 10.0 °C 9.8 °C 1017.8 hPa NNW 1.1 km/h 5.0 km/h 99% 0.0 mm 13 W/m2
08:08 10.0 °C 9.8 °C 1017.8 hPa NW 1.1 km/h 5.0 km/h 99% 0.0 mm 18 W/m2
08:13 10.1 °C 9.9 °C 1017.8 hPa NNW 2.6 km/h 5.0 km/h 99% 0.0 mm 20 W/m2
08:18 10.1 °C 9.9 °C 1017.8 hPa NNW 1.1 km/h 5.0 km/h 99% 0.0 mm 24 W/m2
08:23 10.1 °C 9.9 °C 1017.8 hPa NNW 3.5 km/h 6.1 km/h 99% 0.0 mm 31 W/m2
08:28 10.2 °C 10.1 °C 1017.8 hPa NW 3.5 km/h 7.2 km/h 99% 0.0 mm 32 W/m2
08:33 10.2 °C 10.1 °C 1017.5 hPa NNW 3.5 km/h 8.7 km/h 99% 0.0 mm 39 W/m2
08:38 10.3 °C 10.2 °C 1017.8 hPa North 1.1 km/h 8.7 km/h 99% 0.0 mm 45 W/m2
08:43 10.4 °C 10.3 °C 1017.8 hPa North 3.5 km/h 6.1 km/h 99% 0.0 mm 47 W/m2
08:48 10.5 °C 10.3 °C 1017.8 hPa North 3.5 km/h 6.1 km/h 99% 0.0 mm 50 W/m2
08:53 10.5 °C 10.3 °C 1017.8 hPa North 5.0 km/h 7.2 km/h 99% 0.0 mm 55 W/m2
08:58 10.6 °C 10.4 °C 1017.8 hPa NNW 3.5 km/h 7.2 km/h 99% 0.0 mm 58 W/m2
09:03 10.7 °C 10.6 °C 1017.8 hPa NNW 1.1 km/h 6.1 km/h 99% 0.0 mm 64 W/m2
09:08 10.8 °C 10.7 °C 1017.8 hPa North 3.5 km/h 6.1 km/h 99% 0.0 mm 67 W/m2
09:13 10.9 °C 10.6 °C 1017.8 hPa NNW 1.1 km/h 6.1 km/h 98% 0.0 mm 69 W/m2
09:18 10.9 °C 10.6 °C 1017.8 hPa NNW 3.5 km/h 7.2 km/h 98% 0.0 mm 68 W/m2
09:29 11.1 °C 10.3 °C 1017.8 hPa NNW 3.5 km/h 6.1 km/h 95% 0.0 mm 77 W/m2
09:34 11.2 °C 10.4 °C 1017.8 hPa NNW 1.1 km/h 6.1 km/h 95% 0.0 mm 91 W/m2
09:39 11.3 °C 10.4 °C 1017.8 hPa North 2.6 km/h 5.0 km/h 94% 0.0 mm 98 W/m2
09:44 11.5 °C 10.6 °C 1018.2 hPa North 2.6 km/h 6.1 km/h 94% 0.0 mm 111 W/m2
09:49 11.7 °C 10.6 °C 1017.8 hPa North 3.5 km/h 6.1 km/h 93% 0.0 mm 116 W/m2
09:54 11.8 °C 10.6 °C 1017.8 hPa North 2.6 km/h 6.1 km/h 92% 0.0 mm 116 W/m2
09:59 11.8 °C 10.6 °C 1018.2 hPa NNW 3.5 km/h 7.2 km/h 92% 0.0 mm 108 W/m2
10:04 11.9 °C 10.3 °C 1018.2 hPa NNW 5.0 km/h 7.2 km/h 90% 0.0 mm 101 W/m2
10:10 11.9 °C 10.2 °C 1018.2 hPa NNW 2.6 km/h 7.2 km/h 89% 0.3 mm 98 W/m2
10:15 12.0 °C 10.1 °C 1018.2 hPa NNW 2.6 km/h 7.2 km/h 88% 0.3 mm 105 W/m2
10:20 12.1 °C 10.2 °C 1018.2 hPa NW 3.5 km/h 5.0 km/h 88% 0.3 mm 99 W/m2
10:25 12.0 °C 9.9 °C 1017.8 hPa NNW 1.1 km/h 7.2 km/h 87% 0.3 mm 89 W/m2
10:30 12.1 °C 10.0 °C 1018.2 hPa NNW 2.6 km/h 7.2 km/h 87% 0.3 mm 86 W/m2
10:35 12.1 °C 9.8 °C 1017.8 hPa North 2.6 km/h 5.0 km/h 86% 0.3 mm 96 W/m2
10:40 12.2 °C 9.9 °C 1017.8 hPa North 2.6 km/h 5.0 km/h 86% 0.3 mm 101 W/m2
10:46 12.2 °C 9.8 °C 1018.2 hPa NNW 2.6 km/h 6.1 km/h 85% 0.3 mm 114 W/m2
10:51 12.3 °C 9.8 °C 1017.8 hPa WNW 2.6 km/h 6.1 km/h 85% 0.3 mm 116 W/m2
10:56 12.4 °C 9.9 °C 1017.8 hPa West 2.6 km/h 6.1 km/h 85% 0.3 mm 117 W/m2
11:01 12.6 °C 9.9 °C 1017.8 hPa West 1.1 km/h 6.1 km/h 84% 0.3 mm 124 W/m2
11:06 13.0 °C 10.4 °C 1017.8 hPa WSW 2.6 km/h 5.0 km/h 84% 0.0 mm 119 W/m2
11:11 13.1 °C 10.1 °C 1017.8 hPa SW 6.1 km/h 7.2 km/h 82% 0.0 mm 123 W/m2
11:16 12.9 °C 9.7 °C 1017.2 hPa SW 7.2 km/h 8.7 km/h 81% 0.0 mm 139 W/m2
11:21 12.8 °C 9.6 °C 1017.5 hPa SW 2.6 km/h 9.7 km/h 81% 0.0 mm 145 W/m2
11:26 12.8 °C 9.6 °C 1017.5 hPa SW 3.5 km/h 9.7 km/h 81% 0.0 mm 143 W/m2
11:31 12.8 °C 9.6 °C 1017.2 hPa WSW 5.0 km/h 8.7 km/h 81% 0.0 mm 126 W/m2
11:36 12.8 °C 9.4 °C 1017.2 hPa SW 3.5 km/h 8.7 km/h 80% 0.0 mm 128 W/m2
11:41 12.9 °C 9.7 °C 1017.2 hPa SW 5.0 km/h 7.2 km/h 81% 0.0 mm 133 W/m2
11:46 13.1 °C 9.7 °C 1017.2 hPa SW 3.5 km/h 7.2 km/h 80% 0.0 mm 146 W/m2
11:51 13.3 °C 9.7 °C 1017.2 hPa SW 6.1 km/h 8.7 km/h 79% 0.0 mm 170 W/m2
11:56 13.4 °C 9.7 °C 1016.8 hPa SSW 6.1 km/h 11.1 km/h 78% 0.0 mm 169 W/m2
12:01 13.5 °C 9.7 °C 1016.8 hPa SSW 8.7 km/h 11.1 km/h 78% 0.0 mm 147 W/m2
12:06 13.3 °C 9.6 °C 1016.8 hPa SW 11.1 km/h 13.4 km/h 78% 0.0 mm 150 W/m2
12:11 13.2 °C 9.4 °C 1016.8 hPa SW 8.7 km/h 13.4 km/h 78% 0.0 mm 156 W/m2
12:16 13.4 °C 9.4 °C 1016.5 hPa SW 8.7 km/h 13.4 km/h 77% 0.0 mm 157 W/m2
12:21 13.6 °C 9.7 °C 1016.5 hPa SW 8.7 km/h 12.2 km/h 77% 0.0 mm 162 W/m2
12:26 13.8 °C 9.8 °C 1016.5 hPa SW 9.7 km/h 13.4 km/h 77% 0.0 mm 174 W/m2
12:31 14.0 °C 9.7 °C 1016.8 hPa SW 7.2 km/h 13.4 km/h 75% 0.0 mm 177 W/m2
12:36 14.1 °C 9.7 °C 1016.5 hPa SW 9.7 km/h 13.4 km/h 75% 0.0 mm 184 W/m2
12:41 14.0 °C 9.4 °C 1016.8 hPa SW 7.2 km/h 13.4 km/h 74% 0.0 mm 180 W/m2
12:46 13.8 °C 9.7 °C 1016.5 hPa SW 8.7 km/h 13.4 km/h 76% 0.0 mm 179 W/m2
12:51 13.7 °C 9.6 °C 1016.5 hPa SW 5.0 km/h 12.2 km/h 76% 0.0 mm 172 W/m2
12:56 13.7 °C 9.7 °C 1016.5 hPa SW 9.7 km/h 13.4 km/h 77% 0.0 mm 201 W/m2
13:01 13.6 °C 9.4 °C 1016.5 hPa SW 9.7 km/h 13.4 km/h 76% 0.0 mm 179 W/m2
13:06 13.3 °C 9.2 °C 1016.5 hPa SW 7.2 km/h 13.4 km/h 76% 0.0 mm 187 W/m2
13:11 13.2 °C 9.1 °C 1016.1 hPa SW 6.1 km/h 13.4 km/h 76% 0.0 mm 192 W/m2
13:17 13.6 °C 9.4 °C 1016.1 hPa SW 6.1 km/h 12.2 km/h 76% 0.0 mm 190 W/m2
13:22 13.6 °C 9.4 °C 1016.1 hPa SW 6.1 km/h 9.7 km/h 76% 0.0 mm 206 W/m2
13:27 13.9 °C 9.7 °C 1016.1 hPa WSW 6.1 km/h 9.7 km/h 76% 0.0 mm 181 W/m2
13:32 13.9 °C 9.7 °C 1016.1 hPa SW 8.7 km/h 11.1 km/h 76% 0.0 mm 151 W/m2
13:37 14.1 °C 9.6 °C 1016.1 hPa SSW 7.2 km/h 11.1 km/h 74% 0.0 mm 149 W/m2
13:43 14.1 °C 9.3 °C 1016.1 hPa South 7.2 km/h 12.2 km/h 73% 0.0 mm 139 W/m2
13:48 14.1 °C 9.6 °C 1015.8 hPa South 9.7 km/h 12.2 km/h 74% 0.0 mm 133 W/m2
13:53 14.3 °C 9.7 °C 1015.8 hPa South 9.7 km/h 13.4 km/h 74% 0.0 mm 137 W/m2
13:58 14.3 °C 9.6 °C 1016.1 hPa SSW 7.2 km/h 13.4 km/h 73% 0.0 mm 119 W/m2
14:03 14.2 °C 9.8 °C 1016.1 hPa SSW 5.0 km/h 12.2 km/h 75% 0.0 mm 145 W/m2
14:08 14.9 °C 10.3 °C 1015.8 hPa SSW 5.0 km/h 11.1 km/h 74% 0.0 mm 184 W/m2
14:13 15.0 °C 9.8 °C 1015.8 hPa South 8.7 km/h 12.2 km/h 71% 0.0 mm 196 W/m2
14:18 14.6 °C 10.0 °C 1015.8 hPa South 6.1 km/h 12.2 km/h 74% 0.0 mm 249 W/m2
14:23 15.0 °C 10.2 °C 1015.5 hPa South 5.0 km/h 12.2 km/h 73% 0.0 mm 247 W/m2
14:28 15.1 °C 10.3 °C 1015.5 hPa SSW 12.2 km/h 14.8 km/h 73% 0.0 mm 266 W/m2
14:33 14.8 °C 10.2 °C 1015.5 hPa SSW 8.7 km/h 14.8 km/h 74% 0.0 mm 242 W/m2
14:38 14.6 °C 10.0 °C 1015.5 hPa SSW 6.1 km/h 14.8 km/h 74% 0.0 mm 170 W/m2
14:43 14.6 °C 10.0 °C 1015.5 hPa SSW 7.2 km/h 13.4 km/h 74% 0.0 mm 201 W/m2
14:48 14.7 °C 10.1 °C 1015.1 hPa SSW 8.7 km/h 13.4 km/h 74% 0.0 mm 81 W/m2
14:53 13.9 °C 9.7 °C 1015.5 hPa SSW 8.7 km/h 13.4 km/h 76% 0.0 mm 175 W/m2
14:58 13.8 °C 9.8 °C 1015.5 hPa South 5.0 km/h 13.4 km/h 77% 0.0 mm 75 W/m2
15:03 13.4 °C 9.7 °C 1015.5 hPa South 6.1 km/h 13.4 km/h 78% 0.0 mm 87 W/m2
15:08 13.3 °C 9.6 °C 1015.5 hPa South 6.1 km/h 11.1 km/h 78% 0.0 mm 74 W/m2
15:13 13.1 °C 9.6 °C 1015.5 hPa South 2.6 km/h 9.7 km/h 79% 0.0 mm 80 W/m2
15:18 13.3 °C 9.9 °C 1015.5 hPa SSW 2.6 km/h 8.7 km/h 80% 0.0 mm 95 W/m2
15:23 13.3 °C 9.9 °C 1015.5 hPa SSW 7.2 km/h 9.7 km/h 80% 0.0 mm 96 W/m2
15:28 13.4 °C 10.0 °C 1015.1 hPa SSW 5.0 km/h 9.7 km/h 80% 0.0 mm 81 W/m2
15:33 13.4 °C 10.0 °C 1015.5 hPa SSW 5.0 km/h 9.7 km/h 80% 0.0 mm 53 W/m2
15:38 13.2 °C 10.0 °C 1015.1 hPa SSW 7.2 km/h 11.1 km/h 81% 0.0 mm 50 W/m2
15:43 13.0 °C 9.8 °C 1015.1 hPa SSW 5.0 km/h 11.1 km/h 81% 0.0 mm 40 W/m2
15:48 12.9 °C 9.7 °C 1015.5 hPa SSW 5.0 km/h 11.1 km/h 81% 0.0 mm 37 W/m2
15:53 12.8 °C 9.8 °C 1015.1 hPa SW 3.5 km/h 7.2 km/h 82% 0.0 mm 28 W/m2
15:58 12.7 °C 9.7 °C 1015.1 hPa SW 2.6 km/h 7.2 km/h 82% 0.0 mm 18 W/m2
16:03 12.7 °C 9.7 °C 1015.1 hPa SW 3.5 km/h 6.1 km/h 82% 0.0 mm 14 W/m2
16:08 12.6 °C 9.6 °C 1015.1 hPa SW 2.6 km/h 7.2 km/h 82% 0.0 mm 17 W/m2
16:13 12.5 °C 9.7 °C 1014.8 hPa SW 2.6 km/h 7.2 km/h 83% 0.0 mm 12 W/m2
16:18 12.4 °C 9.6 °C 1014.8 hPa WSW 1.1 km/h 7.2 km/h 83% 0.0 mm 5 W/m2
16:23 12.4 °C 9.8 °C 1014.8 hPa WSW 3.5 km/h 5.0 km/h 84% 0.0 mm 4 W/m2
16:28 12.3 °C 9.8 °C 1014.8 hPa SSW 2.6 km/h 9.7 km/h 85% 0.0 mm 4 W/m2
16:33 12.2 °C 9.9 °C 1014.8 hPa SSW 2.6 km/h 9.7 km/h 86% 0.0 mm 4 W/m2
16:38 12.1 °C 10.0 °C 1014.8 hPa Calm   6.1 km/h 87% 0.0 mm 1 W/m2
16:43 12.0 °C 9.9 °C 1014.8 hPa Calm   5.0 km/h 87% 0.0 mm 1 W/m2
16:48 12.0 °C 9.9 °C 1014.8 hPa Calm   2.6 km/h 87% 0.0 mm 0 W/m2
16:53 12.0 °C 10.1 °C 1014.8 hPa North 1.1 km/h 2.6 km/h 88% 0.0 mm 0 W/m2
16:58 12.0 °C 10.1 °C 1014.8 hPa Calm   2.6 km/h 88% 0.0 mm 0 W/m2
17:03 12.0 °C 10.2 °C 1014.8 hPa WNW 1.1 km/h 2.6 km/h 89% 0.0 mm 0 W/m2
17:08 12.0 °C 10.2 °C 1014.8 hPa Calm   3.5 km/h 89% 0.0 mm 0 W/m2
17:13 12.0 °C 10.2 °C 1015.1 hPa NNE 2.6 km/h 3.5 km/h 89% 0.0 mm 0 W/m2
17:18 11.9 °C 10.5 °C 1015.1 hPa ENE 3.5 km/h 6.1 km/h 91% 0.0 mm 0 W/m2
17:23 11.8 °C 10.6 °C 1015.1 hPa ENE 2.6 km/h 6.1 km/h 92% 0.0 mm 0 W/m2
17:28 11.6 °C 10.3 °C 1014.8 hPa NE 1.1 km/h 5.0 km/h 92% 0.0 mm 0 W/m2
17:33 11.5 °C 10.4 °C 1015.1 hPa North 3.5 km/h 6.1 km/h 93% 0.0 mm 0 W/m2
17:38 11.4 °C 10.3 °C 1015.1 hPa North 6.1 km/h 8.7 km/h 93% 0.0 mm 0 W/m2
17:43 11.4 °C 10.4 °C 1015.1 hPa NNW 2.6 km/h 8.7 km/h 94% 0.0 mm 0 W/m2
17:48 11.4 °C 10.4 °C 1015.1 hPa NNW 2.6 km/h 8.7 km/h 94% 0.0 mm 0 W/m2
17:53 11.4 °C 10.4 °C 1015.1 hPa NNW 1.1 km/h 3.5 km/h 94% 0.3 mm 0 W/m2
17:58 11.3 °C 10.6 °C 1015.1 hPa North 1.1 km/h 3.5 km/h 95% 0.3 mm 0 W/m2
18:03 11.3 °C 10.6 °C 1015.5 hPa North 1.1 km/h 2.6 km/h 95% 0.3 mm 0 W/m2
18:08 11.3 °C 10.6 °C 1015.5 hPa Calm   2.6 km/h 95% 0.3 mm 0 W/m2
18:13 11.3 °C 10.6 °C 1015.5 hPa NNE 1.1 km/h 2.6 km/h 95% 0.3 mm 0 W/m2
18:18 11.3 °C 10.6 °C 1015.5 hPa Calm   2.6 km/h 95% 1.0 mm 0 W/m2
18:23 11.3 °C 10.6 °C 1015.5 hPa North 1.1 km/h 2.6 km/h 95% 1.3 mm 0 W/m2
18:28 11.3 °C 10.6 °C 1015.5 hPa North 1.1 km/h 3.5 km/h 95% 1.5 mm 0 W/m2
18:33 11.3 °C 10.7 °C 1015.5 hPa Calm   3.5 km/h 96% 1.5 mm 0 W/m2
18:38 11.2 °C 10.6 °C 1015.5 hPa Calm   2.6 km/h 96% 1.5 mm 0 W/m2
18:43 11.2 °C 10.6 °C 1015.5 hPa Calm   1.1 km/h 96% 1.5 mm 0 W/m2
18:48 11.2 °C 10.6 °C 1015.1 hPa NW 1.1 km/h 3.5 km/h 96% 1.5 mm 0 W/m2
18:53 11.2 °C 10.6 °C 1015.1 hPa NW 1.1 km/h 3.5 km/h 96% 1.3 mm 0 W/m2
18:58 11.1 °C 10.5 °C 1015.5 hPa Calm   2.6 km/h 96% 1.3 mm 0 W/m2
19:03 11.1 °C 10.5 °C 1015.1 hPa WNW 1.1 km/h 2.6 km/h 96% 1.3 mm 0 W/m2
19:08 11.1 °C 10.5 °C 1015.5 hPa WNW 2.6 km/h 3.5 km/h 96% 1.3 mm 0 W/m2
19:13 11.1 °C 10.5 °C 1015.5 hPa NW 1.1 km/h 3.5 km/h 96% 1.0 mm 0 W/m2
19:19 11.0 °C 10.4 °C 1015.5 hPa Calm   3.5 km/h 96% 0.3 mm 0 W/m2
19:24 11.0 °C 10.4 °C 1015.5 hPa Calm   3.5 km/h 96% 0.3 mm 0 W/m2
19:29 11.0 °C 10.4 °C 1015.1 hPa Calm   2.6 km/h 96% 0.0 mm 0 W/m2
19:39 11.0 °C 10.6 °C 1015.1 hPa Calm   1.1 km/h 97% 0.0 mm 0 W/m2
19:44 11.0 °C 10.6 °C 1015.1 hPa NW 1.1 km/h 2.6 km/h 97% 0.0 mm 0 W/m2
19:50 11.0 °C 10.6 °C 1015.1 hPa Calm   2.6 km/h 97% 0.0 mm 0 W/m2
19:55 11.0 °C 10.6 °C 1015.1 hPa NNW 1.1 km/h 2.6 km/h 97% 0.0 mm 0 W/m2
20:00 11.0 °C 10.6 °C 1015.1 hPa NW 1.1 km/h 3.5 km/h 97% 0.0 mm 0 W/m2
20:05 11.0 °C 10.6 °C 1015.1 hPa NW 1.1 km/h 3.5 km/h 97% 0.0 mm 0 W/m2
20:10 11.0 °C 10.6 °C 1015.1 hPa Calm   2.6 km/h 97% 0.0 mm 0 W/m2
20:15 11.0 °C 10.6 °C 1015.1 hPa NE 1.1 km/h 2.6 km/h 97% 0.0 mm 0 W/m2
20:20 11.0 °C 10.6 °C 1015.1 hPa Calm   3.5 km/h 97% 0.0 mm 0 W/m2
20:25 11.0 °C 10.6 °C 1015.1 hPa Calm   3.5 km/h 97% 0.0 mm 0 W/m2
20:30 11.0 °C 10.7 °C 1015.1 hPa Calm   2.6 km/h 98% 0.0 mm 0 W/m2
20:35 11.0 °C 10.7 °C 1015.1 hPa Calm   2.6 km/h 98% 0.0 mm 0 W/m2
20:40 11.0 °C 10.7 °C 1015.1 hPa Calm   2.6 km/h 98% 0.3 mm 0 W/m2
20:45 11.0 °C 10.7 °C 1015.1 hPa NW 2.6 km/h 3.5 km/h 98% 0.3 mm 0 W/m2
20:50 11.1 °C 10.8 °C 1015.1 hPa North 2.6 km/h 5.0 km/h 98% 0.5 mm 0 W/m2
20:55 11.1 °C 10.8 °C 1014.8 hPa NNE 2.6 km/h 6.1 km/h 98% 0.5 mm 0 W/m2
21:00 11.1 °C 10.8 °C 1015.1 hPa NNE 3.5 km/h 6.1 km/h 98% 0.5 mm 0 W/m2
21:05 11.0 °C 10.7 °C 1015.1 hPa North 1.1 km/h 6.1 km/h 98% 0.5 mm 0 W/m2
21:10 11.0 °C 10.7 °C 1014.8 hPa Calm   5.0 km/h 98% 0.5 mm 0 W/m2
21:15 11.0 °C 10.7 °C 1015.1 hPa Calm   2.6 km/h 98% 0.5 mm 0 W/m2
21:20 11.0 °C 10.7 °C 1014.8 hPa NNE 1.1 km/h 5.0 km/h 98% 0.5 mm 0 W/m2
21:25 10.9 °C 10.8 °C 1014.8 hPa Calm   5.0 km/h 99% 0.5 mm 0 W/m2
21:30 10.9 °C 10.8 °C 1014.8 hPa Calm   3.5 km/h 99% 0.5 mm 0 W/m2
21:35 10.9 °C 10.8 °C 1015.1 hPa NNW 1.1 km/h 3.5 km/h 99% 0.5 mm 0 W/m2
21:40 10.9 °C 10.8 °C 1014.8 hPa NNW 1.1 km/h 3.5 km/h 99% 0.3 mm 0 W/m2
21:45 10.9 °C 10.8 °C 1014.8 hPa NW 1.1 km/h 3.5 km/h 99% 0.3 mm 0 W/m2
21:50 10.8 °C 10.7 °C 1014.8 hPa Calm   3.5 km/h 99% 0.0 mm 0 W/m2
21:55 10.8 °C 10.7 °C 1014.8 hPa NNW 1.1 km/h 3.5 km/h 99% 0.0 mm 0 W/m2
22:00 10.8 °C 10.7 °C 1014.8 hPa NNW 1.1 km/h 3.5 km/h 99% 0.0 mm 0 W/m2
22:06 10.7 °C 10.6 °C 1014.4 hPa NE 1.1 km/h 2.6 km/h 99% 0.0 mm 0 W/m2
22:11 10.7 °C 10.6 °C 1014.4 hPa Calm   3.5 km/h 99% 0.0 mm 0 W/m2
22:16 10.6 °C 10.4 °C 1014.4 hPa North 2.6 km/h 3.5 km/h 99% 0.0 mm 0 W/m2
22:21 10.6 °C 10.4 °C 1014.4 hPa Calm   3.5 km/h 99% 0.0 mm 0 W/m2
22:26 10.5 °C 10.3 °C 1014.4 hPa Calm   3.5 km/h 99% 0.0 mm 0 W/m2
22:31 10.6 °C 10.4 °C 1014.4 hPa NNE 1.1 km/h 3.5 km/h 99% 0.0 mm 0 W/m2
22:36 10.5 °C 10.3 °C 1014.4 hPa Calm   3.5 km/h 99% 0.0 mm 0 W/m2
22:41 10.5 °C 10.3 °C 1014.4 hPa North 1.1 km/h 3.5 km/h 99% 0.0 mm 0 W/m2
22:46 10.4 °C 10.3 °C 1014.1 hPa Calm   2.6 km/h 99% 0.0 mm 0 W/m2
22:51 10.4 °C 10.3 °C 1014.1 hPa Calm   2.6 km/h 99% 0.0 mm 0 W/m2
22:57 10.3 °C 10.2 °C 1014.4 hPa Calm   1.1 km/h 99% 0.0 mm 0 W/m2
23:02 10.3 °C 10.2 °C 1014.1 hPa Calm   2.6 km/h 99% 0.0 mm 0 W/m2
23:07 10.3 °C 10.2 °C 1014.1 hPa NE 1.1 km/h 2.6 km/h 99% 0.0 mm 0 W/m2
23:12 10.3 °C 10.2 °C 1014.1 hPa Calm   2.6 km/h 99% 0.0 mm 0 W/m2
23:17 10.3 °C 10.2 °C 1014.1 hPa NNE 1.1 km/h 2.6 km/h 99% 0.0 mm 0 W/m2
23:22 10.3 °C 10.2 °C 1013.8 hPa NNE 1.1 km/h 2.6 km/h 99% 0.0 mm 0 W/m2
23:27 10.3 °C 10.2 °C 1013.8 hPa Calm   2.6 km/h 99% 0.0 mm 0 W/m2
23:32 10.3 °C 10.2 °C 1013.8 hPa NNE 1.1 km/h 3.5 km/h 99% 0.0 mm 0 W/m2
23:37 10.2 °C 10.1 °C 1013.8 hPa Calm   3.5 km/h 99% 0.0 mm 0 W/m2
23:42 10.2 °C 10.1 °C 1013.4 hPa North 1.1 km/h 2.6 km/h 99% 0.0 mm 0 W/m2
23:47 10.1 °C 9.9 °C 1013.8 hPa Calm   2.6 km/h 99% 0.0 mm 0 W/m2
23:52 10.0 °C 9.8 °C 1013.4 hPa NNE 1.1 km/h 2.6 km/h 99% 0.0 mm 0 W/m2
23:57 9.9 °C 9.8 °C 1013.4 hPa Calm   2.6 km/h 99% 0.0 mm 0 W/m2
Northern Hawkes Bay. New Zealand Historic Data
Compliments of Weather Underground - 2.25 mb